TimeCDT,TemperatureF,Dew PointF,Humidity,Sea Level PressureIn,VisibilityMPH,Wind Direction,Wind SpeedMPH,Gust SpeedMPH,PrecipitationIn,Events,Conditions,WindDirDegrees,DateUTC
12:15 AM,57.4,49.3,74,29.83,10.0,NW,5.8,-,N/A,,Clear,310,2013-09-21 05:15:00
12:35 AM,56.8,49.5,76,29.83,10.0,WNW,4.6,-,N/A,,Clear,300,2013-09-21 05:35:00
12:55 AM,56.1,49.5,78,29.83,10.0,Calm,Calm,-,N/A,,Clear,0,2013-09-21 05:55:00
1:15 AM,55.4,49.3,80,29.84,10.0,WNW,4.6,-,N/A,,Clear,290,2013-09-21 06:15:00
1:35 AM,54.5,48.2,79,29.84,10.0,WNW,4.6,-,N/A,,Clear,290,2013-09-21 06:35:00
1:55 AM,54.0,47.7,79,29.84,10.0,WNW,3.5,-,N/A,,Clear,300,2013-09-21 06:55:00
2:15 AM,53.6,47.3,79,29.84,10.0,WNW,3.5,-,N/A,,Clear,300,2013-09-21 07:15:00
2:35 AM,53.4,47.3,80,29.84,10.0,WNW,4.6,-,N/A,,Clear,290,2013-09-21 07:35:00
2:55 AM,52.2,46.6,81,29.84,10.0,WNW,5.8,-,N/A,,Clear,300,2013-09-21 07:55:00
3:15 AM,52.0,46.4,81,29.84,10.0,WNW,4.6,-,N/A,,Clear,290,2013-09-21 08:15:00
3:35 AM,51.8,46.0,81,29.84,10.0,WNW,5.8,-,N/A,,Clear,300,2013-09-21 08:35:00
4:15 AM,50.9,45.7,82,29.85,10.0,WNW,4.6,-,N/A,,Clear,290,2013-09-21 09:15:00
4:55 AM,50.0,45.3,84,29.86,10.0,WNW,5.8,-,N/A,,Clear,290,2013-09-21 09:55:00
4:59 AM,50.0,46.4,87,29.86,10.0,WNW,4.6,-,N/A,,Clear,290,2013-09-21 09:59:00
5:15 AM,50.0,45.1,83,29.86,10.0,WNW,4.6,-,N/A,,Clear,300,2013-09-21 10:15:00
5:35 AM,49.8,45.5,85,29.86,10.0,West,3.5,-,N/A,,Clear,280,2013-09-21 10:35:00
5:55 AM,48.7,44.8,86,29.87,10.0,West,4.6,-,N/A,,Clear,280,2013-09-21 10:55:00
6:15 AM,48.6,45.0,87,29.87,10.0,West,4.6,-,N/A,,Clear,280,2013-09-21 11:15:00
6:35 AM,48.4,45.0,88,29.88,10.0,West,5.8,-,N/A,,Clear,280,2013-09-21 11:35:00
6:55 AM,48.2,45.1,89,29.88,10.0,West,4.6,-,N/A,,Clear,280,2013-09-21 11:55:00
7:15 AM,48.9,45.7,89,29.88,10.0,West,5.8,-,N/A,,Clear,280,2013-09-21 12:15:00
7:35 AM,50.2,46.0,86,29.88,10.0,WNW,3.5,-,N/A,,Mostly Cloudy,290,2013-09-21 12:35:00
7:55 AM,51.1,46.4,84,29.88,10.0,WNW,5.8,-,N/A,,Overcast,290,2013-09-21 12:55:00
8:15 AM,52.2,46.4,81,29.88,10.0,WNW,6.9,-,N/A,,Overcast,290,2013-09-21 13:15:00
8:35 AM,54.5,46.8,75,29.88,10.0,WNW,6.9,-,N/A,,Scattered Clouds,290,2013-09-21 13:35:00
8:55 AM,55.4,46.0,71,29.88,10.0,WNW,10.4,-,N/A,,Clear,300,2013-09-21 13:55:00
9:15 AM,56.8,45.0,64,29.88,10.0,NW,11.5,19.6,N/A,,Clear,310,2013-09-21 14:15:00
9:35 AM,57.2,43.2,59,29.88,10.0,NW,12.7,19.6,N/A,,Scattered Clouds,310,2013-09-21 14:35:00
9:55 AM,57.4,43.5,60,29.89,10.0,NW,11.5,21.9,N/A,,Scattered Clouds,320,2013-09-21 14:55:00
10:15 AM,57.4,44.6,62,29.89,10.0,NW,15.0,18.4,N/A,,Mostly Cloudy,310,2013-09-21 15:15:00
10:35 AM,56.7,43.5,61,29.90,10.0,NW,8.1,20.7,N/A,,Overcast,310,2013-09-21 15:35:00
10:55 AM,57.0,43.7,61,29.90,10.0,NW,11.5,17.3,N/A,,Overcast,310,2013-09-21 15:55:00
11:15 AM,57.2,43.0,59,29.90,10.0,NW,9.2,17.3,N/A,,Overcast,320,2013-09-21 16:15:00
11:35 AM,58.8,43.0,56,29.90,10.0,NW,10.4,-,N/A,,Overcast,320,2013-09-21 16:35:00
11:55 AM,58.3,43.2,57,29.90,10.0,NNW,11.5,-,N/A,,Overcast,330,2013-09-21 16:55:00
12:15 PM,57.2,42.8,59,29.91,10.0,NW,8.1,-,N/A,,Overcast,310,2013-09-21 17:15:00
12:35 PM,58.5,43.3,57,29.91,10.0,West,9.2,-,N/A,,Overcast,270,2013-09-21 17:35:00
12:55 PM,58.1,43.5,58,29.91,10.0,West,13.8,-,N/A,,Overcast,280,2013-09-21 17:55:00
1:15 PM,59.5,43.3,55,29.91,10.0,West,8.1,-,N/A,,Overcast,280,2013-09-21 18:15:00
1:35 PM,61.2,42.8,51,29.90,10.0,WNW,8.1,-,N/A,,Mostly Cloudy,300,2013-09-21 18:35:00
1:55 PM,59.2,42.8,55,29.91,10.0,NW,8.1,16.1,N/A,,Overcast,320,2013-09-21 18:55:00
2:15 PM,59.0,42.6,55,29.91,10.0,NW,8.1,-,N/A,,Overcast,320,2013-09-21 19:15:00
2:35 PM,58.6,42.6,55,29.91,10.0,NW,11.5,16.1,N/A,,Overcast,310,2013-09-21 19:35:00
2:55 PM,59.7,41.5,51,29.91,10.0,WNW,9.2,-,N/A,,Overcast,300,2013-09-21 19:55:00
3:15 PM,58.6,41.5,53,29.91,10.0,WNW,5.8,-,N/A,,Overcast,300,2013-09-21 20:15:00
3:35 PM,59.9,42.8,53,29.91,10.0,WNW,9.2,-,N/A,,Overcast,290,2013-09-21 20:35:00
3:55 PM,59.2,41.9,53,29.91,10.0,WNW,10.4,-,N/A,,Overcast,290,2013-09-21 20:55:00
4:15 PM,60.6,41.7,50,29.91,10.0,WNW,9.2,-,N/A,,Overcast,300,2013-09-21 21:15:00
4:35 PM,59.2,41.7,52,29.91,10.0,WNW,8.1,-,N/A,,Overcast,290,2013-09-21 21:35:00
4:55 PM,60.4,42.6,52,29.91,10.0,NNW,8.1,-,N/A,,Mostly Cloudy,340,2013-09-21 21:55:00
5:15 PM,60.1,42.4,52,29.91,10.0,WNW,6.9,-,N/A,,Mostly Cloudy,290,2013-09-21 22:15:00
5:35 PM,58.5,42.8,56,29.91,10.0,NNW,5.8,-,N/A,,Overcast,340,2013-09-21 22:35:00
5:55 PM,57.2,43.7,61,29.91,10.0,NW,3.5,-,N/A,,Mostly Cloudy,310,2013-09-21 22:55:00
6:15 PM,57.2,44.1,62,29.91,10.0,Calm,Calm,-,N/A,,Mostly Cloudy,0,2013-09-21 23:15:00
6:35 PM,57.0,44.2,62,29.91,10.0,Calm,Calm,-,N/A,,Scattered Clouds,0,2013-09-21 23:35:00
6:55 PM,55.4,44.4,67,29.91,10.0,Calm,Calm,-,N/A,,Clear,0,2013-09-21 23:55:00
7:15 PM,53.8,44.8,72,29.92,10.0,Calm,Calm,-,N/A,,Clear,0,2013-09-22 00:15:00
7:35 PM,51.4,45.5,80,29.92,10.0,Calm,Calm,-,N/A,,Clear,0,2013-09-22 00:35:00
7:55 PM,50.5,45.9,84,29.92,10.0,Calm,Calm,-,N/A,,Clear,0,2013-09-22 00:55:00
8:15 PM,50.0,46.0,86,29.93,10.0,Calm,Calm,-,N/A,,Scattered Clouds,0,2013-09-22 01:15:00
8:35 PM,49.6,45.3,85,29.93,10.0,Calm,Calm,-,N/A,,Scattered Clouds,0,2013-09-22 01:35:00
8:55 PM,50.0,45.5,85,29.95,10.0,NE,4.6,-,N/A,,Scattered Clouds,40,2013-09-22 01:55:00
9:15 PM,50.0,44.6,82,29.95,10.0,Calm,Calm,-,N/A,,Clear,0,2013-09-22 02:15:00
9:35 PM,50.0,44.6,82,29.96,10.0,Calm,Calm,-,N/A,,Clear,0,2013-09-22 02:35:00
9:55 PM,49.1,43.7,82,29.97,10.0,NE,3.5,-,N/A,,Clear,50,2013-09-22 02:55:00
10:15 PM,48.4,42.6,80,29.98,10.0,Calm,Calm,-,N/A,,Clear,0,2013-09-22 03:15:00
10:35 PM,47.5,42.4,83,29.98,10.0,NE,3.5,-,N/A,,Clear,40,2013-09-22 03:35:00
10:55 PM,47.3,42.3,83,29.98,10.0,Calm,Calm,-,N/A,,Clear,0,2013-09-22 03:55:00
11:15 PM,46.6,41.7,83,29.99,10.0,Calm,Calm,-,N/A,,Clear,0,2013-09-22 04:15:00
11:35 PM,45.7,41.2,84,29.99,10.0,Calm,Calm,-,N/A,,Clear,0,2013-09-22 04:35:00
11:55 PM,43.7,40.6,89,29.99,10.0,Calm,Calm,-,N/A,,Scattered Clouds,0,2013-09-22 04:55:00